RYR173 EGBB-EIDW

Flight info

Callsign RYR173
Flight time 0h 37m
Altitude 24000
Route LUVUM DCT NANTI Y53 WAL/N0447F280 L10 PENIL UL28 LELDO M145 BAGSO BAGSO3R
Aircraft B38M/M-SDE1FGHILORVWXY/HB1

Departure

Time 2026-05-04 11:51
Airport Birmingham Airport (EGBB)

Arrival

Time 2026-05-04 12:29
Airport Dublin Airport (EIDW)
Time Latitude Longitude Altitude Speed Heading
2026-05-04 11:39 52.45411 -1.73925 331 ft 0 kts 325°
2026-05-04 11:45 52.45399 -1.73911 333 ft 3 kts 325°
2026-05-04 11:45 52.45384 -1.73894 331 ft 3 kts 325°
2026-05-04 11:46 52.45371 -1.73875 330 ft 3 kts 283°
2026-05-04 11:46 52.45372 -1.73852 329 ft 0 kts 240°
2026-05-04 11:48 52.45365 -1.73873 331 ft 6 kts 240°
2026-05-04 11:48 52.45324 -1.73959 332 ft 12 kts 212°
2026-05-04 11:48 52.45234 -1.73930 331 ft 17 kts 146°
2026-05-04 11:49 52.45126 -1.73805 333 ft 17 kts 145°
2026-05-04 11:49 52.45038 -1.73826 333 ft 15 kts 228°
2026-05-04 11:49 52.44985 -1.73987 332 ft 17 kts 254°
2026-05-04 11:49 52.44953 -1.74184 330 ft 16 kts 253°
2026-05-04 11:50 52.44932 -1.74290 330 ft 8 kts 286°
2026-05-04 11:50 52.44946 -1.74316 327 ft 0 kts 324°
2026-05-04 11:50 52.45071 -1.74457 330 ft 59 kts 326°
2026-05-04 11:50 52.45635 -1.75080 329 ft 133 kts 326°
2026-05-04 11:51 52.46545 -1.76075 514 ft 172 kts 328°
2026-05-04 11:51 52.47565 -1.77176 1332 ft 177 kts 330°
2026-05-04 11:51 52.48657 -1.78158 2245 ft 181 kts 341°
2026-05-04 11:51 52.49917 -1.78530 3003 ft 190 kts
2026-05-04 11:52 52.51279 -1.78229 3720 ft 204 kts 11°
2026-05-04 11:52 52.52676 -1.77911 4739 ft 205 kts
2026-05-04 11:52 52.54141 -1.77600 5450 ft 220 kts
2026-05-04 11:52 52.55690 -1.77278 6275 ft 228 kts
2026-05-04 11:53 52.57291 -1.77034 7123 ft 234 kts
2026-05-04 11:53 52.58963 -1.76912 7804 ft 250 kts
2026-05-04 11:53 52.60765 -1.76691 8369 ft 269 kts
2026-05-04 11:53 52.62682 -1.76386 9074 ft 283 kts
2026-05-04 11:55 52.75860 -1.83282 13221 ft 367 kts 310°
2026-05-04 11:55 52.77593 -1.86520 13523 ft 385 kts 310°
2026-05-04 11:56 52.79384 -1.89909 13911 ft 397 kts 310°
2026-05-04 11:56 52.81195 -1.93370 14563 ft 400 kts 309°
2026-05-04 11:56 52.83018 -1.96869 15175 ft 404 kts 309°
2026-05-04 11:56 52.84858 -2.00409 15803 ft 407 kts 309°
2026-05-04 11:57 52.86710 -2.03978 16405 ft 411 kts 310°
2026-05-04 11:57 52.88583 -2.07594 16963 ft 416 kts 310°
2026-05-04 11:57 52.90469 -2.11242 17562 ft 419 kts 309°
2026-05-04 11:57 52.92372 -2.14928 18144 ft 422 kts 309°
2026-05-04 11:58 52.94288 -2.18644 18669 ft 426 kts 309°
2026-05-04 11:58 52.96219 -2.22393 19159 ft 429 kts 310°
2026-05-04 11:58 52.98163 -2.26175 19631 ft 433 kts 310°
2026-05-04 11:58 52.99461 -2.28704 19917 ft 436 kts 310°
2026-05-04 11:59 53.01434 -2.32551 20405 ft 439 kts 311°
2026-05-04 11:59 53.04065 -2.37691 21033 ft 443 kts 311°
2026-05-04 11:59 53.05413 -2.40327 21345 ft 445 kts 311°
2026-05-04 11:59 53.07424 -2.44268 21806 ft 448 kts 311°
2026-05-04 12:00 53.09447 -2.48237 22260 ft 451 kts 311°
2026-05-04 12:00 53.11482 -2.52237 22709 ft 455 kts 311°
2026-05-04 12:00 53.13514 -2.56290 23149 ft 458 kts 310°
2026-05-04 12:00 53.15481 -2.60510 23520 ft 463 kts 310°
2026-05-04 12:01 53.17440 -2.64795 23905 ft 467 kts 309°
2026-05-04 12:01 53.19391 -2.69146 24052 ft 470 kts 309°
2026-05-04 12:02 53.31111 -2.95272 24073 ft 477 kts 309°
2026-05-04 12:03 53.33097 -2.99725 24074 ft 478 kts 309°
2026-05-04 12:03 53.35079 -3.04179 24074 ft 478 kts 309°
2026-05-04 12:03 53.37090 -3.08703 24072 ft 478 kts 309°
2026-05-04 12:03 53.39037 -3.13124 24072 ft 478 kts 308°
2026-05-04 12:04 53.40970 -3.17660 24073 ft 478 kts 308°
2026-05-04 12:04 53.42905 -3.22197 24072 ft 478 kts 308°
2026-05-04 12:04 53.44840 -3.26733 24069 ft 479 kts 308°
2026-05-04 12:04 53.46773 -3.31274 24078 ft 479 kts 308°
2026-05-04 12:05 53.48709 -3.35824 24078 ft 479 kts 308°
2026-05-04 12:05 53.50641 -3.40378 24078 ft 479 kts 308°
2026-05-04 12:05 53.52570 -3.44932 24079 ft 479 kts 307°
2026-05-04 12:05 53.54497 -3.49488 24079 ft 479 kts 307°
2026-05-04 12:06 53.56427 -3.54059 24079 ft 478 kts 307°
2026-05-04 12:06 53.58350 -3.58624 24081 ft 479 kts 307°
2026-05-04 12:06 53.60272 -3.63192 24082 ft 479 kts 307°
2026-05-04 12:06 53.61947 -3.68041 24069 ft 481 kts 295°
2026-05-04 12:07 53.63216 -3.73249 24080 ft 483 kts 294°
2026-05-04 12:07 53.64495 -3.78470 24083 ft 483 kts 294°
2026-05-04 12:07 53.65757 -3.83710 24085 ft 483 kts 294°
2026-05-04 12:07 53.67013 -3.88965 24085 ft 483 kts 294°
2026-05-04 12:08 53.68263 -3.94220 24076 ft 482 kts 294°
2026-05-04 12:08 53.69506 -3.99452 24080 ft 480 kts 293°
2026-05-04 12:08 53.70742 -4.04680 24082 ft 479 kts 292°
2026-05-04 12:08 53.71570 -4.10127 24066 ft 481 kts 278°
2026-05-04 12:09 53.71859 -4.15740 24090 ft 483 kts 276°
2026-05-04 12:09 53.72119 -4.21393 24080 ft 483 kts 276°
2026-05-04 12:09 53.72354 -4.27064 24087 ft 484 kts 275°
2026-05-04 12:09 53.72571 -4.32733 24087 ft 484 kts 275°
2026-05-04 12:10 53.72780 -4.38403 24079 ft 484 kts 275°
2026-05-04 12:10 53.72986 -4.44080 24081 ft 484 kts 275°
2026-05-04 12:10 53.73189 -4.49755 24079 ft 484 kts 275°
2026-05-04 12:10 53.73388 -4.55429 24081 ft 484 kts 275°
2026-05-04 12:11 53.73586 -4.61102 24082 ft 484 kts 275°
2026-05-04 12:11 53.73779 -4.66761 24073 ft 477 kts 275°
2026-05-04 12:11 53.73968 -4.72321 23770 ft 470 kts 275°
2026-05-04 12:11 53.74149 -4.77782 23230 ft 463 kts 275°
2026-05-04 12:12 53.74328 -4.83178 22692 ft 458 kts 275°
2026-05-04 12:12 53.74504 -4.88524 22143 ft 454 kts 274°
2026-05-04 12:12 53.74674 -4.93773 21614 ft 450 kts 274°
2026-05-04 12:12 53.74840 -4.98953 21092 ft 445 kts 274°
2026-05-04 12:13 53.75004 -5.04148 20576 ft 441 kts 274°
2026-05-04 12:14 53.70405 -5.38227 16989 ft 417 kts 251°
2026-05-04 12:15 53.69467 -5.42829 16464 ft 413 kts 252°
2026-05-04 12:15 53.68636 -5.47436 15942 ft 408 kts 260°
2026-05-04 12:15 53.68186 -5.52135 15438 ft 404 kts 261°
2026-05-04 12:15 53.67680 -5.56776 14973 ft 400 kts 260°
2026-05-04 12:16 53.67159 -5.61367 14483 ft 397 kts 260°
2026-05-04 12:16 53.66629 -5.65913 14012 ft 393 kts 259°
2026-05-04 12:16 53.66096 -5.70418 13491 ft 390 kts 259°
2026-05-04 12:16 53.65564 -5.74880 12964 ft 387 kts 259°
2026-05-04 12:17 53.65034 -5.79306 12444 ft 384 kts 259°
2026-05-04 12:17 53.64508 -5.83689 11935 ft 380 kts 259°
2026-05-04 12:17 53.63983 -5.88041 11435 ft 378 kts 259°
2026-05-04 12:17 53.63461 -5.92363 10924 ft 375 kts 259°
2026-05-04 12:18 53.62940 -5.96654 10460 ft 372 kts 259°
2026-05-04 12:18 53.62424 -6.00908 10094 ft 370 kts 259°
2026-05-04 12:18 53.61895 -6.05134 9669 ft 367 kts 258°
2026-05-04 12:18 53.61364 -6.09308 9249 ft 362 kts 258°
2026-05-04 12:19 53.60844 -6.13422 8835 ft 357 kts 258°
2026-05-04 12:19 53.60329 -6.17479 8424 ft 352 kts 258°
2026-05-04 12:19 53.59819 -6.21490 8018 ft 348 kts 258°
2026-05-04 12:19 53.59317 -6.25448 7577 ft 342 kts 258°
2026-05-04 12:20 53.58830 -6.29270 7159 ft 327 kts 258°
2026-05-04 12:20 53.58360 -6.32928 6753 ft 314 kts 258°
2026-05-04 12:20 53.57907 -6.36446 6341 ft 302 kts 258°
2026-05-04 12:20 53.57462 -6.39837 5904 ft 292 kts 258°
2026-05-04 12:21 53.57037 -6.43077 5480 ft 284 kts 258°
2026-05-04 12:21 53.56612 -6.46278 5041 ft 277 kts 258°
2026-05-04 12:21 53.56194 -6.49412 4595 ft 272 kts 258°
2026-05-04 12:21 53.55769 -6.52453 4144 ft 267 kts 258°
2026-05-04 12:22 53.55344 -6.55468 3706 ft 263 kts 258°
2026-05-04 12:22 53.54907 -6.58438 3295 ft 261 kts 258°
2026-05-04 12:22 53.54326 -6.61262 3108 ft 250 kts 237°
2026-05-04 12:22 53.53052 -6.63054 3067 ft 236 kts 203°
2026-05-04 12:23 53.51516 -6.63953 3074 ft 231 kts 198°
2026-05-04 12:23 53.49989 -6.64710 3021 ft 228 kts 188°
2026-05-04 12:23 53.48482 -6.64267 2980 ft 218 kts 144°
2026-05-04 12:23 53.47412 -6.62603 3060 ft 207 kts 129°
2026-05-04 12:24 53.46471 -6.60802 3029 ft 204 kts 128°
2026-05-04 12:24 53.45647 -6.58898 3010 ft 197 kts 109°
2026-05-04 12:24 53.45349 -6.56782 3015 ft 181 kts 94°
2026-05-04 12:24 53.45205 -6.54700 3021 ft 179 kts 93°
2026-05-04 12:25 53.45081 -6.52618 3011 ft 179 kts 91°
2026-05-04 12:25 53.44965 -6.50526 2835 ft 181 kts 92°
2026-05-04 12:25 53.44849 -6.48435 2627 ft 179 kts 93°
2026-05-04 12:25 53.44734 -6.46385 2416 ft 173 kts 92°
2026-05-04 12:26 53.44625 -6.44426 2193 ft 165 kts 92°
2026-05-04 12:26 53.44519 -6.42529 1962 ft 161 kts 91°
2026-05-04 12:26 53.44419 -6.40713 1769 ft 151 kts 92°
2026-05-04 12:26 53.44319 -6.38959 1608 ft 151 kts 94°
2026-05-04 12:27 53.44215 -6.37203 1448 ft 152 kts 92°
2026-05-04 12:27 53.44110 -6.35433 1095 ft 149 kts 93°
2026-05-04 12:27 53.44012 -6.33714 850 ft 149 kts 92°
2026-05-04 12:27 53.43928 -6.31999 655 ft 145 kts 92°
2026-05-04 12:28 53.43836 -6.30304 473 ft 146 kts 94°
2026-05-04 12:28 53.43746 -6.28630 302 ft 144 kts 94°
2026-05-04 12:28 53.43660 -6.27012 220 ft 129 kts 94°
2026-05-04 12:28 53.43579 -6.25851 215 ft 59 kts 95°
2026-05-04 12:29 53.43544 -6.25292 215 ft 34 kts 110°
2026-05-04 12:29 53.43457 -6.24994 217 ft 25 kts 123°
2026-05-04 12:29 53.43381 -6.24836 214 ft 16 kts 123°